Location: Newark
(0.5300°S, 127.4800°E)
Time: 12:29:43
(UTC+00:00)

Tiros 1 despin weight - All Passes

Search period start: 16 September 2019 00:00
Search period end: 26 September 2019 00:00
Orbit: 595 x 642 km, 48.2° (Epoch: 15 September)

Date Brightness Start Highest point End Pass type
(mag) Time Alt. Az. Time Alt. Az. Time Alt. Az.
16 Sep - 01:19:05 10° S 01:22:31 20° SE 01:25:55 10° E daylight
16 Sep - 02:59:53 10° WSW 03:03:56 30° NW 03:07:55 10° N daylight
16 Sep - 13:27:02 10° N 13:30:51 28° NE 13:34:43 10° ESE night (unlit)
16 Sep - 15:08:56 10° W 15:12:14 20° SW 15:15:36 10° S night (unlit)
17 Sep - 01:34:34 10° SSW 01:39:07 53° SE 01:43:35 10° NE daylight
17 Sep - 03:18:58 10° WNW 03:20:31 12° NW 03:22:05 10° NNW daylight
17 Sep - 13:42:57 10° NW 13:47:22 81° NE 13:51:53 10° SE night (unlit)
18 Sep - 00:12:28 10° SSE 00:14:09 12° SE 00:15:49 10° ESE daylight
18 Sep - 01:51:06 10° SW 01:55:39 54° NW 02:00:07 10° NNE daylight
18 Sep - 12:19:48 10° NNE 12:22:34 16° NE 12:25:20 10° E night (unlit)
18 Sep - 13:59:52 10° WNW 14:03:55 35° SW 14:08:02 10° SSE night (unlit)
19 Sep - 00:26:42 10° S 00:30:48 30° SE 00:34:50 10° ENE daylight
19 Sep - 02:08:45 10° W 02:12:11 20° NW 02:15:35 10° N daylight
19 Sep - 12:34:55 10° NNW 12:39:07 43° NE 12:43:22 10° ESE night (unlit)
19 Sep - 14:18:22 10° WSW 14:20:33 13° SW 14:22:44 10° SSW night (unlit)
20 Sep - 00:42:40 10° SW 00:47:21 83° SE 00:51:57 10° NE daylight
20 Sep - 12:51:16 10° NW 12:55:38 64° SW 13:00:04 10° SSE night (unlit)
20 Sep - 23:19:17 10° S 23:22:27 18° SE 23:25:34 10° E daylight
21 Sep - 00:59:37 10° WSW 01:03:52 35° NW 01:08:05 10° NNE daylight
21 Sep - 11:27:15 10° N 11:30:50 24° NE 11:34:27 10° ESE visible
21 Sep - 13:08:41 10° WNW 13:12:12 23° SW 13:15:46 10° S night (unlit)
21 Sep - 23:34:33 10° SSW 23:39:02 45° SE 23:43:28 10° NE daylight
22 Sep - 01:18:06 10° W 01:20:27 14° NW 01:22:47 10° NNW daylight
22 Sep - 11:42:59 10° NNW 11:47:22 69° NE 11:51:48 10° SE visible
22 Sep - 22:13:42 10° SE 22:14:03 10° SE 22:14:25 10° SE daylight
22 Sep - 23:50:56 10° SW 23:55:34 64° NW 00:00:09 10° NNE daylight
23 Sep - 10:20:16 10° NNE 10:22:32 14° NE 10:24:48 10° E visible
23 Sep - 11:59:45 10° WNW 12:03:54 40° SW 12:08:05 10° SSE visible
23 Sep - 22:26:47 10° S 22:30:43 26° SE 22:34:36 10° ENE daylight
24 Sep - 00:08:23 10° WSW 00:12:07 24° NW 00:15:49 10° N daylight
24 Sep - 10:35:03 10° NNW 10:39:06 37° NE 10:43:11 10° ESE visible
24 Sep - 12:17:54 10° W 12:20:30 15° SW 12:23:07 10° SSW visible
24 Sep - 22:42:35 10° SSW 22:47:16 71° SE 22:51:54 10° NE daylight
25 Sep - 10:51:14 10° NW 10:55:37 75° SW 11:00:03 10° SE visible
25 Sep - 21:19:33 10° SSE 21:22:21 15° SE 21:25:07 10° E daylight
25 Sep - 22:59:23 10° WSW 23:03:47 41° NW 23:08:10 10° NNE daylight
